Regional Weather Roundup
Issued by NWS Albany, NY

Home | Current Version | Previous Version | Graphics & Text | Print | Product List | Glossary Off
Versions: 1 2 3 4 5 6 7 8 9 10 11 12 13 14 15 16 17 18 19 20 21 22 23 24 25 26 27

000
ASUS41 KALY 241310
RWRALY

NEW YORK STATE HOURLY WEATHER ROUNDUP
NATIONAL WEATHER SERVICE ALBANY NY
900 AM EDT SUN JUL 24 2016

NOTE: "FAIR" INDICATES FEW OR NO CLOUDS BELOW 12,000 FEET WITH NO
SIGNIFICANT WEATHER AND/OR NO OBSTRUCTIONS TO VISIBILITY.

NYZ032-033-038>043-046>054-057>066-NYZ062>081-082-084-241400-
EAST


CITY           SKY/WX    TMP DP  RH WIND       PRES   REMARKS
ALBANY         MOSUNNY   71  63  75 N7        30.02R
GLENS FALLS    CLOUDY    64  62  93 E7        30.02S
POUGHKEEPSIE   MOSUNNY   74  63  68 CALM      30.00S
NEWBURGH       SUNNY     73  64  73 CALM      30.03R
MONTGOMERY     MOSUNNY   77  64  64 VRB5      30.01S
WHITE PLAINS   SUNNY     77  61  57 W3        29.99S
ISLIP          MOSUNNY   80  62  54 N9        29.97S
NEW YORK CITY  MOSUNNY   80  61  52 N6        29.98S
CENTRAL PARK   MOSUNNY   79  60  52 VRB3      30.01S
$$

NYZ005>009-017-018-044>046-055-056-241400-
CENTRAL


CITY           SKY/WX    TMP DP  RH WIND       PRES   REMARKS
FULTON         PTSUNNY   74  63  68 VRB5      30.04S
SYRACUSE       PTSUNNY   73  64  73 VRB3      30.03S
ROME           MOSUNNY   69  65  86 CALM      30.05S
ELMIRA         MOSUNNY   70  58  65 CALM      30.05S
BINGHAMTON     MOSUNNY   72  59  63 S3        30.07S
MONTICELLO     SUNNY     72  61  68 W5        30.07S
$$

NYZ026>034-041>043-087-241400-
NORTH


CITY           SKY/WX    TMP DP  RH WIND       PRES   REMARKS
WATERTOWN      PTSUNNY   71  58  63 NE6       30.04F
FORT DRUM      NOT AVBL
MASSENA        CLOUDY    68  55  63 CALM      30.06R
SARANAC LAKE   CLOUDY    63  51  65 VRB3      30.05R
PLATTSBURGH    SUNNY     68  53  58 N5        30.03R
$$

NYZ001>004-010>016-019>021-085-241400-
WEST


CITY           SKY/WX    TMP DP  RH WIND       PRES   REMARKS
NIAGARA FALLS  PTSUNNY   80  61  52 E8        30.00F
BUFFALO        MOSUNNY   75  60  59 SE6       30.01F
DUNKIRK        SUNNY     76  63  64 CALM      30.00F
JAMESTOWN      SUNNY     70  61  73 S9        30.06F
WELLSVILLE     SUNNY     72  60  66 VRB3      30.10S
ROCHESTER      CLOUDY    76  63  64 SE7       30.04S
PENN YAN       MOSUNNY   75  62  64 W3        30.06R
$$

             KEY
       WCI = WIND CHILL INDEX
       VSB = VISIBILITY
       HX  = HEAT INDEX
$$




USA.gov is the U.S. government's official web portal to all federal, state and local government web resources and services.